Location: Tel Aviv
(32.0670°N, 34.7670°E)
Time: 08:08:08
(UTC+03:00)

JUGNU - Visible Passes

Search period start: 19 September 2024 00:00
Search period end: 29 September 2024 00:00
Orbit: 834 x 861 km, 20.0° (Epoch: 18 September)

Date Brightness Start Highest point End Pass type
(mag) Time Alt. Az. Time Alt. Az. Time Alt. Az.
19 Sep ? 20:24:30 10° SW 20:29:18 25° S 20:29:46 25° S visible
20 Sep ? 20:08:34 10° SW 20:13:22 25° S 20:14:52 23° SSE visible
21 Sep ? 19:52:38 10° SW 19:57:24 25° S 19:59:59 19° SE visible
21 Sep ? 21:41:42 10° SW 21:41:46 10° SW 21:41:46 10° SW visible
22 Sep ? 19:36:43 10° SW 19:41:28 25° S 19:45:05 14° SE visible
22 Sep ? 21:25:55 10° SW 21:26:52 13° SW 21:26:52 13° SW visible
23 Sep ? 19:20:48 10° SW 19:25:32 24° S 19:30:11 10° SE visible
23 Sep ? 21:10:10 10° SW 21:11:59 15° SW 21:11:59 15° SW visible
24 Sep ? 19:04:55 10° WSW 19:09:35 24° S 19:14:15 10° SE visible
24 Sep ? 20:54:26 10° SW 20:57:07 16° SSW 20:57:07 16° SSW visible
25 Sep ? 18:49:02 10° WSW 18:53:38 23° S 18:58:15 10° SE visible
25 Sep ? 20:38:46 10° SW 20:41:59 15° SSW 20:42:16 15° SSW visible
26 Sep ? 20:23:08 10° SW 20:26:01 14° SSW 20:27:27 13° S visible
27 Sep ? 20:07:36 10° SW 20:10:03 13° SSW 20:12:30 10° S visible
28 Sep ? 19:52:14 10° SW 19:54:06 11° SSW 19:55:58 10° S visible
